This is the latest recevied weather packets stored in our database for station/object KC4JES. If no packets are shown the sender has not sent any weather packets the latest 10 day(s).
| Time | Temp. | Humidity | Pressure | Rain* | Wind** | Luminosity | Snow |
|---|---|---|---|---|---|---|---|
| 1778092919 | 30.56° C | 60% | 1016.9 hPa | 0 mm | - | 884 W/m² | - |
| 1778092616 | 30.56° C | 61% | 1016.9 hPa | 0 mm | - | 858 W/m² | - |
| 1778092311 | 30° C | 63% | 1017.1 hPa | 0 mm | - | 851 W/m² | - |
| 1778092009 | 30.56° C | 64% | 1017.1 hPa | 0 mm | - | 952 W/m² | - |
| 1778091706 | 30.56° C | 60% | 1016.9 hPa | 0 mm | - | 839 W/m² | - |
| 1778091404 | 30.56° C | 61% | 1017 hPa | 0 mm | - | 920 W/m² | - |
| 1778091101 | 30.56° C | 60% | 1017.2 hPa | 0 mm | - | 889 W/m² | - |
| 1778090798 | 30.56° C | 61% | 1017.2 hPa | 0 mm | - | 949 W/m² | - |
| 1778090494 | 30.56° C | 61% | 1017.3 hPa | 0 mm | - | 879 W/m² | - |
| 1778090190 | 30° C | 60% | 1017 hPa | 0 mm | - | 824 W/m² | - |
| 1778089886 | 30° C | 60% | 1017.1 hPa | 0 mm | - | 914 W/m² | - |
| 1778089586 | 30° C | 59% | 1017.4 hPa | 0 mm | - | 879 W/m² | - |
| 1778089282 | 30.56° C | 59% | 1017.4 hPa | 0 mm | - | 769 W/m² | - |
| 1778088979 | 30.56° C | 59% | 1017.5 hPa | 0 mm | - | 785 W/m² | - |
| 1778088676 | 30° C | 62% | 1017.6 hPa | 0 mm | - | 720 W/m² | - |
| 1778088373 | 30° C | 60% | 1017.8 hPa | 0 mm | - | 759 W/m² | - |
| 1778088069 | 30° C | 61% | 1017.7 hPa | 0 mm | - | 673 W/m² | - |
| 1778087767 | 30.56° C | 57% | 1017.8 hPa | 0 mm | - | 246 W/m² | - |
| 1778087465 | 31.11° C | 56% | 1017.8 hPa | 0 mm | - | 209 W/m² | - |
| 1778087162 | 31.11° C | 53% | 1017.8 hPa | 0 mm | - | 193 W/m² | - |
| 1778086859 | 30.56° C | 51% | 1017.8 hPa | 0 mm | - | 171 W/m² | - |
| 1778086558 | 30.56° C | 51% | 1018.1 hPa | 0 mm | - | 189 W/m² | - |
| 1778086253 | 31.11° C | 50% | 1017.7 hPa | 0 mm | - | 195 W/m² | - |
| 1778085951 | 31.11° C | 50% | 1017.9 hPa | 0 mm | - | 190 W/m² | - |
| 1778085648 | 30.56° C | 55% | 1018.2 hPa | 0 mm | - | 194 W/m² | - |
* Rain latest hour (hover to see other rain measurements)
** Current wind speed in m/s (hover to see current wind gust speed)